Location: Bli��� Lhota
(48.7570°N, 14.0120°E)
Time: 06:12:33
(UTC+00:00)

Cosmos 2278 Rocket - Pass Details

Date: 18 September 2020
Orbit: 841 x 845 km, 71.0° (Epoch: 22 October)

Event Time Altitude Azimuth Distance (km) Brightness Sun altitude
Exits shadow 23:04:21 18° 323° (NW) 1,965 4.5 -39.8°
Drops below altitude 10° 23:08:08 10° 5° (N) 2,472 5.3 -39.8°
Sets 23:11:27 0° 24° (NNE) 3,410 6.1 -39.8°
